This is the latest recevied weather packets stored in our database for station/object KI6AOK. If no packets are shown the sender has not sent any weather packets the latest 10 day(s).
| Time | Temp. | Humidity | Pressure | Rain* | Wind** | Luminosity | Snow |
|---|---|---|---|---|---|---|---|
| 1777941346 | 18.89° C | 56% | 1015 hPa | 0 mm | - | 225 W/m² | - |
| 1777941043 | 18.89° C | 56% | 1014.9 hPa | 0 mm | - | 209 W/m² | - |
| 1777940743 | 18.89° C | 56% | 1014.9 hPa | 0 mm | - | 255 W/m² | - |
| 1777940443 | 18.89° C | 57% | 1014.8 hPa | 0 mm | - | 300 W/m² | - |
| 1777940140 | 18.89° C | 56% | 1014.9 hPa | 0 mm | - | 263 W/m² | - |
| 1777939837 | 18.89° C | 54% | 1014.8 hPa | 0 mm | - | 159 W/m² | - |
| 1777939535 | 19.44° C | 54% | 1014.8 hPa | 0 mm | - | 346 W/m² | - |
| 1777939232 | 19.44° C | 51% | 1014.9 hPa | 0 mm | - | 141 W/m² | - |
| 1777938929 | 19.44° C | 54% | 1014.9 hPa | 0 mm | - | 310 W/m² | - |
| 1777938625 | 20° C | 52% | 1014.8 hPa | 0 mm | - | 408 W/m² | - |
| 1777938322 | 18.89° C | 52% | 1014.9 hPa | 0 mm | - | 470 W/m² | - |
| 1777938019 | 18.89° C | 50% | 1014.8 hPa | 0 mm | - | 433 W/m² | - |
| 1777937714 | 18.89° C | 54% | 1014.8 hPa | 0 mm | - | 316 W/m² | - |
| 1777937412 | 19.44° C | 53% | 1014.8 hPa | 0 mm | - | 275 W/m² | - |
| 1777937109 | 19.44° C | 53% | 1014.7 hPa | 0 mm | - | 445 W/m² | - |
| 1777936806 | 19.44° C | 51% | 1014.7 hPa | 0 mm | - | 285 W/m² | - |
| 1777936502 | 20° C | 50% | 1014.8 hPa | 0 mm | - | 301 W/m² | - |
| 1777936199 | 20° C | 50% | 1014.7 hPa | 0 mm | - | 368 W/m² | - |
| 1777935895 | 20.56° C | 49% | 1014.9 hPa | 0 mm | - | 430 W/m² | - |
| 1777935594 | 20.56° C | 47% | 1014.7 hPa | 0 mm | - | 480 W/m² | - |
| 1777935291 | 20.56° C | 48% | 1014.7 hPa | 0 mm | - | 526 W/m² | - |
| 1777934988 | 20° C | 51% | 1014.6 hPa | 0 mm | - | 561 W/m² | - |
| 1777934684 | 20° C | 51% | 1014.6 hPa | 0 mm | - | 536 W/m² | - |
| 1777934381 | 20° C | 49% | 1014.7 hPa | 0 mm | - | 512 W/m² | - |
| 1777934077 | 20.56° C | 49% | 1014.8 hPa | 0 mm | - | 526 W/m² | - |
* Rain latest hour (hover to see other rain measurements)
** Current wind speed in m/s (hover to see current wind gust speed)